Wind_Speed
31 31 31 30 29 28 27 27 27 27 26 26 26 26 26 26 26 26 26 26 25 25 24 23 22 21 21 20 19 19 19 18 18 17 16 15 15 15 15 15 14 13 12 10 10 10 11 11 12 12 12 14 15 15 15 15 14 13 11 10 9 8 7 7 6 4 4 3 2 3 3 5 7 8 8 9 9 10 10 11 12 13 14 14 14
32 31 31 31 31 30 28 27 27 27 27 27 27 27 27 27 26 27 27 26 26 26 25 24 23 23 23 22 21 20 20 20 19 19 18 17 16 16 15 15 15 15 14 13 12 12 12 12 12 12 12 14 14 14 14 13 13 12 11 10 10 9 8 7 6 4 3 3 4 5 6 7 8 9 8 8 8 9 10 11 12 12 13 12 12
33 32 32 32 32 31 30 29 28 28 28 28 27 27 27 27 27 28 28 27 26 26 26 25 24 24 24 24 23 22 22 21 21 20 20 19 18 17 17 16 16 16 16 15 15 14 14 13 13 13 13 14 14 14 14 13 13 12 12 11 11 10 9 7 6 4 4 5 7 8 9 9 8 7 7 7 8 9 9 10 10 11 11 11 11
35 34 33 32 32 33 32 32 30 29 29 29 28 27 27 27 27 28 28 28 28 27 26 26 25 25 25 25 24 23 23 23 22 22 21 20 19 19 18 18 18 18 17 17 18 17 16 15 15 15 15 15 15 15 15 14 14 13 13 12 12 11 10 9 7 7 6 6 8 9 10 9 7 6 6 7 8 8 8 8 8 8 9 9 10
36 36 34 33 33 34 34 34 33 32 30 29 29 28 28 28 28 28 29 29 29 28 27 27 27 27 26 26 25 24 23 23 23 23 22 21 21 20 20 20 19 19 19 19 20 19 19 18 18 18 17 17 17 17 17 16 15 15 14 13 13 12 12 10 9 9 8 7 8 10 10 8 5 6 7 7 6 7 7 7 8 7 8 9 10
35 36 35 35 35 34 34 34 34 33 32 31 29 29 29 29 29 29 29 29 29 29 29 28 28 28 27 26 26 25 24 24 24 23 23 22 22 22 22 21 20 20 21 21 21 21 20 20 20 21 20 19 19 19 18 18 17 17 16 15 14 14 13 13 12 11 10 9 9 9 9 7 5 6 8 7 7 7 6 6 7 8 8 10 11
33 35 36 36 36 35 34 34 34 33 33 32 31 30 30 30 30 30 30 30 30 30 30 29 28 27 27 27 27 26 26 26 25 24 23 23 24 23 23 22 22 21 21 21 21 21 21 21 22 22 21 21 21 21 21 20 20 19 18 17 17 16 16 15 14 13 13 11 10 9 8 7 6 7 8 8 7 8 8 7 7 8 9 12 13
32 33 35 36 35 34 34 33 33 33 33 33 32 31 31 31 31 31 31 31 31 31 30 29 28 27 27 28 29 28 28 28 27 26 25 25 25 25 25 24 23 23 22 21 21 20 21 21 22 22 22 22 22 22 23 22 22 21 20 20 19 19 18 17 17 15 14 12 11 10 9 8 7 8 8 8 8 8 9 9 9 9 10 13 16
31 33 35 36 35 33 34 34 34 33 33 33 33 32 32 32 32 32 32 32 32 32 31 30 29 27 26 27 29 30 30 29 28 28 27 26 26 26 26 26 25 24 23 22 21 21 20 20 20 21 21 21 22 23 23 24 24 23 22 22 21 21 20 19 18 17 15 13 11 11 10 9 8 9 8 9 9 9 11 12 12 12 12 14 18
30 32 34 35 34 33 33 34 35 35 34 33 33 33 33 33 32 32 33 32 32 32 32 31 30 29 27 27 28 30 32 31 29 29 29 28 28 28 27 27 26 25 24 24 23 22 21 20 20 19 19 20 20 22 23 24 24 24 23 23 23 22 21 20 19 17 16 14 12 12 11 9 9 10 10 10 10 10 12 13 14 15 15 16 18
31 33 34 34 34 34 33 33 33 35 35 34 33 33 32 33 33 33 33 33 32 33 33 33 32 30 29 28 29 30 32 31 30 29 29 29 30 30 29 29 28 27 26 25 24 23 22 22 21 20 19 19 18 19 21 22 23 24 23 24 23 23 22 21 20 19 17 15 13 13 12 10 10 11 12 12 11 11 12 13 14 17 18 19 19
32 33 34 33 33 31 29 30 33 35 36 35 34 33 33 32 33 33 33 33 32 33 33 33 33 31 30 29 29 30 31 30 30 29 29 29 30 31 31 30 30 29 28 26 25 24 24 23 23 22 20 19 18 18 19 20 21 22 23 23 23 23 23 23 21 19 18 16 15 14 13 12 12 13 14 13 11 12 12 13 16 18 20 20 21
31 32 32 32 32 29 24 24 29 32 35 35 35 34 34 33 32 32 32 32 32 33 33 33 33 32 31 30 30 30 30 30 29 29 28 28 29 30 31 31 31 30 29 28 26 25 25 24 24 23 21 20 19 18 18 18 19 21 21 22 22 22 23 22 21 19 19 18 16 15 14 15 14 13 15 14 12 13 13 14 17 19 20 21 22
28 29 30 32 34 31 26 23 25 28 31 33 35 35 35 33 32 31 32 32 33 33 33 33 33 32 31 30 30 30 30 29 29 28 28 28 28 29 30 31 32 31 30 29 28 27 26 26 25 23 22 21 20 19 17 17 17 19 20 22 22 22 22 21 20 19 19 18 17 16 16 17 16 14 15 15 14 14 15 15 18 20 21 21 22
26 25 27 30 33 34 31 28 27 29 31 33 34 34 34 33 31 31 31 32 32 32 32 32 33 32 31 30 29 30 29 28 28 27 27 27 28 28 30 30 31 31 30 29 29 29 28 27 26 24 23 22 20 19 17 16 16 18 20 21 22 22 21 20 19 18 18 18 18 18 17 18 17 15 14 15 16 16 17 17 19 21 21 22 23
23 23 25 28 29 31 31 30 31 33 34 34 34 34 34 33 32 31 31 31 31 31 32 32 32 32 31 30 30 29 29 28 27 26 26 27 27 29 30 30 31 31 30 30 29 29 29 29 27 26 24 22 20 19 18 18 17 17 19 20 22 22 22 20 19 18 18 18 19 19 19 19 18 15 14 15 16 18 19 19 21 23 23 23 23
22 24 26 27 26 27 28 30 33 35 37 37 36 35 35 35 34 33 32 31 30 30 31 31 32 32 31 31 30 29 28 28 27 26 26 26 27 29 30 30 30 30 29 29 29 29 29 29 28 27 25 23 21 19 19 20 19 18 18 18 20 22 21 20 20 19 19 20 20 20 20 19 18 16 15 16 18 20 20 21 23 25 25 25 25
24 25 26 26 25 27 29 32 34 37 39 39 38 37 36 35 35 35 34 32 30 29 29 30 30 31 30 30 30 29 28 27 27 27 26 26 26 27 28 28 29 29 28 28 28 28 28 28 28 27 26 23 21 20 21 22 21 20 18 17 19 20 20 19 20 20 21 22 22 21 20 19 18 16 16 18 20 22 22 23 25 26 26 26 27
27 27 26 25 25 28 31 34 36 39 41 41 39 38 37 36 35 35 35 34 32 31 30 30 30 30 30 30 30 29 29 28 27 27 27 27 27 27 27 28 28 27 27 27 28 28 28 28 28 27 26 23 22 21 21 23 23 21 20 19 18 17 17 18 20 22 23 23 23 22 21 20 19 18 19 21 23 23 24 25 26 27 28 28 29
29 29 28 27 28 31 34 36 39 41 43 42 40 39 38 37 36 36 36 36 34 33 32 31 31 31 30 30 30 30 29 28 28 28 28 29 29 29 29 30 29 27 26 26 27 28 28 27 27 26 25 23 22 21 21 22 23 22 22 22 19 16 16 19 21 23 24 24 23 22 22 21 21 21 22 23 25 25 26 27 27 28 28 29 30
30 32 31 30 32 35 37 38 41 43 42 41 40 38 38 38 38 37 36 37 36 36 34 33 32 31 31 31 30 30 29 29 28 28 28 29 30 30 31 32 30 28 28 27 28 28 28 27 25 24 23 22 21 21 21 21 22 23 24 23 20 18 19 21 22 23 24 24 23 23 23 22 22 23 24 25 26 27 27 27 28 28 29 30 30
32 35 35 34 37 40 40 42 45 45 42 40 39 37 37 38 39 39 37 37 38 37 36 35 33 32 31 31 31 30 30 29 29 28 28 28 29 30 32 32 30 29 29 29 29 28 27 26 25 23 23 22 21 20 20 21 22 23 24 22 21 22 23 23 23 23 23 23 23 23 22 22 22 24 25 26 27 27 27 27 28 29 29 30 30
36 39 39 38 41 45 47 49 50 48 43 41 40 38 36 37 39 40 39 38 39 39 38 37 36 34 32 31 31 30 30 30 30 29 28 29 30 30 31 31 30 30 31 30 29 28 27 26 25 25 24 23 22 21 21 21 22 23 22 22 23 24 25 24 23 23 23 23 23 22 22 23 24 25 25 26 27 28 27 28 29 29 29 29 30
37 39 40 39 41 46 49 51 51 48 44 42 40 39 37 36 38 39 39 38 39 40 40 40 39 37 34 32 31 30 29 29 29 28 28 29 30 29 29 29 30 30 31 30 28 27 27 26 26 26 26 26 24 23 22 22 22 21 21 23 24 25 25 24 23 22 22 22 22 22 22 22 23 24 25 26 28 28 28 29 29 29 29 29 29
36 38 39 40 41 44 46 47 47 46 45 43 41 40 38 37 37 37 38 38 39 40 41 42 41 39 37 34 32 31 29 29 28 28 28 29 29 29 29 29 29 29 29 28 27 26 26 26 27 27 28 27 26 25 24 23 22 22 22 23 24 24 24 22 21 21 21 21 21 21 21 21 22 24 26 27 28 29 29 29 29 29 30 30 29
36 37 38 39 40 42 43 45 45 45 45 44 42 41 40 39 37 36 37 37 39 40 41 43 43 42 39 36 34 32 31 30 29 28 27 28 28 28 28 28 28 28 28 27 26 26 26 27 28 28 28 27 26 25 25 25 24 24 23 24 24 24 23 21 21 21 21 21 21 21 22 23 24 26 27 27 27 28 28 29 29 30 31 32 30
37 38 38 39 40 41 42 44 45 45 45 44 42 41 41 40 39 38 37 37 38 40 41 42 44 44 42 39 36 35 34 32 30 29 28 27 27 26 27 28 29 28 27 26 24 25 26 27 27 27 27 27 26 26 26 26 26 26 25 25 25 25 24 23 24 24 23 23 24 24 24 25 26 26 25 25 26 27 28 29 30 31 32 33 31
38 39 39 40 40 40 40 42 44 45 45 44 42 42 41 41 41 39 38 37 38 38 39 41 44 45 44 43 41 38 36 33 31 30 28 26 25 25 26 26 27 27 26 24 23 24 25 26 26 26 27 27 27 27 27 26 26 27 26 26 26 26 26 26 25 25 25 24 24 23 24 25 25 25 24 25 27 29 29 30 30 31 31 32 32
39 39 40 41 41 40 40 40 42 43 44 44 43 42 42 42 41 38 36 36 35 35 36 39 43 45 45 46 44 40 37 32 29 27 26 25 24 24 24 25 26 26 24 22 23 25 25 25 26 26 27 28 28 28 28 28 27 27 27 27 27 26 26 26 25 24 23 22 23 23 24 25 26 25 25 27 29 30 30 30 30 30 31 31 31
39 40 40 41 41 40 40 40 40 42 43 44 44 44 43 42 39 36 34 33 33 32 34 37 41 43 45 46 45 41 37 32 28 26 26 26 25 24 23 23 25 26 25 25 26 26 26 26 28 28 28 28 28 28 28 28 27 27 27 27 27 27 26 26 24 23 22 22 24 25 26 27 28 27 27 28 29 29 30 30 30 31 32 31 31
40 40 41 42 42 41 41 41 40 41 43 45 47 46 43 40 38 36 34 34 33 32 33 35 37 40 43 45 44 41 38 34 31 29 27 26 26 24 22 21 23 26 27 29 30 30 29 30 31 30 29 28 27 27 27 26 26 26 26 26 27 27 27 26 23 22 23 24 25 27 27 28 28 28 27 27 27 27 28 29 30 31 32 31 30
41 41 42 43 43 42 42 43 43 44 45 47 47 45 42 41 41 40 38 36 36 36 36 36 37 39 41 42 41 40 39 36 33 30 27 25 26 25 23 22 22 24 27 30 33 33 33 33 32 31 30 28 27 27 27 27 26 26 26 27 28 28 27 25 24 24 24 25 26 27 27 27 28 27 25 24 24 25 26 27 28 29 30 29 29
43 42 42 44 45 44 43 44 45 46 47 48 47 45 44 43 41 40 38 37 36 36 38 39 39 39 39 39 38 39 39 37 35 33 30 27 26 26 26 26 25 26 28 32 34 35 35 35 34 33 32 31 30 30 29 29 29 28 28 28 28 28 27 25 25 26 26 26 26 26 26 27 26 25 24 24 24 24 24 26 28 28 28 28 28
44 45 45 45 46 46 46 46 47 48 48 48 48 46 46 44 40 37 36 36 35 35 36 38 40 39 38 38 38 38 38 37 35 34 33 31 29 29 29 29 29 30 32 34 36 36 36 36 35 34 33 33 32 32 32 32 32 30 29 28 27 26 26 26 26 26 25 25 25 25 26 26 25 24 24 24 23 24 27 29 29 29 28 27 28
46 47 47 47 47 48 48 48 49 50 48 47 45 45 46 45 41 36 35 35 36 36 35 37 39 38 36 36 37 37 37 37 36 34 34 33 32 32 32 32 33 34 35 36 36 36 35 36 36 36 36 35 34 34 34 32 30 28 27 26 25 25 26 26 26 25 24 25 26 26 25 25 24 23 23 22 22 26 30 31 30 29 28 28 28
49 49 49 49 49 49 49 49 49 49 48 45 44 45 46 45 43 39 37 36 37 37 35 36 37 36 34 35 37 37 36 36 35 34 34 35 34 34 34 34 35 35 35 35 35 35 36 37 37 37 38 36 34 33 31 28 26 25 24 24 24 25 26 26 25 24 24 25 25 25 25 24 24 23 23 21 22 26 28 29 29 30 29 28 28
50 50 52 51 50 50 51 50 47 46 46 45 44 45 46 44 43 42 40 38 39 38 37 36 37 36 35 35 37 37 35 34 34 34 35 36 36 36 36 36 36 36 36 36 36 36 36 37 37 38 38 36 32 30 30 29 28 26 24 25 26 26 26 27 24 20 20 21 21 21 22 23 23 23 23 22 23 25 27 28 30 31 30 29 29
47 48 50 51 51 50 51 50 48 46 46 45 43 44 44 43 42 41 40 39 39 40 40 38 37 37 37 36 38 38 36 34 36 36 37 38 38 37 38 38 37 37 38 38 38 37 37 37 36 36 36 33 29 27 28 29 27 25 24 26 28 28 28 28 24 20 19 21 21 21 22 23 24 25 25 26 27 29 30 30 30 31 31 31 31
46 45 46 47 48 49 50 50 49 48 48 47 45 43 42 42 41 40 41 41 40 41 43 42 39 39 39 39 41 41 39 37 38 38 38 37 37 38 38 38 38 39 39 38 38 38 38 38 36 34 34 33 29 28 28 28 27 25 26 28 30 29 28 29 26 21 20 21 23 25 26 27 27 28 29 30 31 32 32 31 31 32 32 31 32
42 40 41 42 44 47 49 49 49 49 49 48 45 43 42 43 42 41 42 44 43 42 43 43 41 41 41 41 43 43 40 38 38 38 37 37 38 38 38 38 39 38 36 36 37 37 36 35 34 34 35 35 31 28 27 26 25 25 28 29 29 27 27 27 25 23 21 21 23 25 27 29 30 32 32 33 33 33 33 32 32 33 32 31 31
39 36 34 35 37 41 45 47 47 47 46 46 44 43 42 44 44 44 45 46 45 44 43 42 41 42 42 43 44 44 42 41 41 40 40 40 41 40 39 39 39 36 31 30 33 33 32 32 33 34 36 36 33 27 24 23 24 27 28 27 25 24 23 23 24 25 25 26 26 28 29 31 33 34 34 33 33 32 33 32 32 32 31 31 30
42 41 39 37 36 37 40 42 44 44 44 44 43 43 43 44 45 46 46 46 46 45 43 40 39 41 42 43 45 45 44 43 43 44 44 42 40 39 39 38 37 34 30 29 30 31 30 32 34 34 34 34 31 28 25 24 25 26 26 25 24 23 22 22 23 24 26 28 30 32 33 34 34 33 32 31 31 32 32 31 30 30 30 31 31
41 44 45 45 43 40 38 38 40 42 42 42 42 43 44 45 46 45 44 44 44 43 41 38 38 40 42 43 45 46 46 44 43 43 42 38 36 37 37 37 36 35 32 31 31 32 33 34 34 34 33 30 29 28 27 26 25 26 26 26 27 26 24 24 25 25 26 27 30 31 32 32 31 31 31 32 32 32 31 29 29 30 31 31 31
32 35 37 39 41 40 37 35 36 40 42 42 43 44 43 44 45 45 43 43 42 41 39 39 38 39 42 44 45 46 46 45 42 40 39 37 36 37 39 38 37 36 35 34 33 32 33 33 33 32 30 27 26 27 27 27 27 28 27 27 28 29 28 28 28 28 27 27 27 28 28 29 29 30 31 32 32 31 30 29 29 29 30 30 29
20 22 25 29 31 33 32 30 30 36 41 43 44 43 41 41 43 43 42 41 41 40 40 40 40 40 42 45 46 46 46 45 42 40 39 39 39 40 40 40 39 39 39 38 34 30 29 29 29 28 27 27 27 28 29 29 28 28 27 28 30 32 33 32 31 30 28 27 27 28 28 28 30 31 32 31 31 30 29 28 27 27 27 28 27
10 8 12 18 20 22 23 23 25 30 36 40 40 39 37 36 38 39 38 39 40 40 41 43 43 43 44 46 47 47 46 45 43 41 39 39 39 40 41 41 40 39 39 37 33 30 31 31 29 29 30 31 31 31 30 29 27 27 28 30 33 34 35 35 34 32 29 28 28 28 29 31 33 33 32 30 28 27 26 26 26 26 27 27 27
10 5 4 8 12 14 17 20 23 26 29 33 34 34 32 31 31 33 35 37 38 39 43 47 48 47 47 47 46 45 44 42 42 40 37 36 38 39 40 40 39 38 38 37 34 33 33 32 32 33 33 33 32 30 28 26 27 29 31 32 32 33 35 36 35 32 30 30 29 30 32 34 33 31 28 26 25 25 25 25 26 27 27 27 27
11 9 5 4 7 12 17 19 20 21 23 25 26 26 26 27 27 27 27 29 30 33 40 46 47 47 47 46 44 43 42 40 39 36 33 35 39 43 44 43 40 37 34 34 33 32 33 35 35 35 33 30 28 27 27 27 30 32 33 32 32 34 36 37 34 33 32 31 31 33 34 32 30 27 26 26 26 26 26 26 27 27 28 28 29
8 10 9 6 5 7 11 16 18 19 19 17 15 16 21 25 26 23 20 21 22 24 30 35 38 41 42 43 42 40 39 37 37 36 35 38 43 45 43 38 35 32 32 34 35 36 37 36 34 30 28 27 27 28 30 32 33 34 35 37 37 37 38 36 34 33 32 31 31 32 31 28 27 27 27 27 27 27 27 28 28 29 29 30 30
7 8 10 11 9 6 6 10 15 18 16 14 13 14 19 24 25 23 22 23 24 24 24 27 30 34 37 39 39 37 36 35 35 36 34 33 36 37 35 31 30 31 33 34 35 34 32 30 27 26 26 28 30 31 32 33 33 34 36 37 36 35 34 33 33 33 32 30 30 31 29 27 27 28 28 28 28 29 29 30 31 31 31 31 32
9 7 7 10 12 12 10 9 11 13 14 13 14 15 16 18 20 21 23 26 29 29 28 29 30 32 34 35 35 36 37 38 37 35 30 26 25 27 29 28 28 28 29 29 29 28 27 28 28 28 28 29 31 32 33 34 36 37 36 36 36 36 35 34 33 33 32 31 31 30 29 28 28 28 29 30 30 31 31 32 32 33 33 33 33
Wind_Direction
207 208 209 209 210 211 213 216 219 222 222 221 219 219 220 221 221 220 220 219 220 220 220 219 219 220 221 220 217 216 214 213 212 211 208 207 208 208 206 204 201 199 196 190 186 185 183 181 179 177 175 173 172 171 169 170 172 174 176 178 183 189 193 195 199 200 200 207 281 303 318 338 335 338 351 1 3 356 351 356 2 5 3 357 355
206 206 208 210 210 210 211 214 217 219 221 222 220 219 218 219 221 223 224 223 223 224 224 222 221 221 224 224 221 219 218 216 215 213 212 211 212 213 212 210 208 207 203 199 196 194 193 193 192 190 187 183 182 182 182 182 185 188 191 195 202 205 207 213 215 214 233 267 302 311 318 329 329 330 344 356 351 344 346 351 355 1 3 0 4
208 207 208 210 210 210 211 212 215 217 220 221 220 219 218 217 219 222 225 226 226 226 225 225 224 223 224 227 226 223 221 221 219 215 214 214 213 214 215 215 214 213 210 208 206 203 201 200 201 201 200 197 196 197 197 197 199 202 205 210 215 218 222 228 228 233 261 287 300 309 316 320 321 324 333 340 338 338 342 343 345 354 0 4 13
210 210 210 210 211 211 212 211 214 216 218 220 219 219 218 217 218 221 223 226 228 228 226 226 226 226 225 226 227 227 224 224 223 219 216 216 215 215 215 217 218 218 216 214 213 211 208 207 207 208 208 208 209 210 211 212 214 216 219 223 226 231 237 239 239 241 249 271 290 300 305 306 306 306 312 321 328 327 327 329 333 345 357 2 9
212 212 212 212 212 213 213 212 213 214 217 219 220 219 219 219 219 220 221 224 227 229 228 227 226 226 225 225 225 226 226 226 226 224 221 219 218 219 218 219 220 221 220 218 218 216 213 212 214 215 213 213 215 218 220 221 224 226 228 232 235 239 243 245 247 248 250 261 276 286 289 283 275 285 294 299 306 307 306 315 322 333 351 353 356
212 214 214 214 214 215 215 215 214 213 216 219 220 220 220 220 221 220 221 223 225 228 230 229 227 226 226 226 225 225 224 226 227 226 224 223 223 223 223 222 221 221 221 221 221 221 218 216 218 219 219 218 219 222 224 225 227 229 231 234 238 242 245 249 252 253 258 263 265 272 274 261 248 273 291 293 291 285 280 296 314 323 337 338 341
214 214 215 217 217 217 218 219 218 216 216 217 219 221 221 221 222 222 222 224 225 227 229 230 229 226 224 225 226 226 224 224 225 226 225 225 225 225 226 225 222 222 223 223 223 224 223 222 222 223 224 222 223 226 228 230 232 232 234 235 239 242 243 247 251 254 259 263 265 267 260 246 245 267 285 291 288 283 277 281 299 315 328 330 330
217 215 216 218 220 220 220 221 222 220 219 218 219 221 222 222 223 223 224 226 226 228 229 231 232 228 224 223 225 227 227 225 224 225 225 226 226 227 228 227 225 223 224 226 227 226 226 226 226 227 228 227 227 228 231 234 236 237 238 239 241 243 245 248 251 254 259 262 266 265 246 234 251 268 281 286 281 283 287 286 291 304 325 332 329
220 218 218 219 221 222 222 223 224 224 223 222 220 220 221 222 224 224 225 227 228 230 231 231 232 231 226 223 223 226 228 227 225 225 226 227 228 229 230 231 229 226 225 228 231 232 232 232 231 231 232 232 231 231 232 234 237 238 240 242 244 245 246 249 251 255 258 257 258 255 234 228 254 266 273 281 278 281 288 292 297 306 325 339 337
224 221 221 222 223 223 223 224 225 226 226 225 224 222 222 222 224 224 225 226 228 231 232 232 233 232 229 226 224 225 228 229 227 225 226 228 230 232 233 234 233 231 228 228 231 235 237 238 238 237 236 235 234 234 235 236 237 238 239 242 245 246 247 248 249 251 253 252 253 248 230 228 257 267 267 272 274 279 286 294 304 312 325 340 342
225 223 221 221 224 227 226 225 226 227 227 227 226 226 225 225 225 225 226 226 227 230 232 234 235 234 232 230 228 227 228 230 230 229 228 228 230 232 234 235 236 234 232 230 230 233 236 239 240 240 240 240 239 238 239 239 239 239 239 241 243 246 247 248 247 248 248 248 250 243 229 231 255 266 266 267 270 278 286 298 311 317 324 334 337
227 224 223 221 221 226 229 227 226 227 226 226 226 227 227 227 227 227 227 227 227 229 232 235 236 236 235 232 231 230 229 229 230 231 231 231 231 233 234 236 237 237 235 233 232 232 234 236 238 239 240 241 242 243 244 243 243 242 241 241 243 245 246 246 247 247 246 246 244 235 232 239 251 261 264 263 267 277 289 306 316 319 324 329 329
233 229 229 228 225 227 231 226 219 218 220 222 224 225 227 228 228 228 229 228 228 229 231 235 237 237 236 234 233 233 232 230 230 229 231 232 232 234 236 237 238 239 239 238 237 236 236 236 237 237 238 239 240 242 245 247 248 247 244 243 242 244 246 247 247 245 244 244 238 228 233 244 248 256 263 264 268 278 291 308 316 317 320 323 322
231 232 231 232 231 231 234 229 215 210 213 217 220 223 225 227 229 230 230 230 230 230 231 234 237 238 238 236 234 234 234 233 232 230 230 231 232 235 237 239 240 240 240 240 241 241 242 241 241 240 239 239 239 240 242 243 246 248 248 248 247 246 247 247 245 242 240 239 233 225 232 244 246 250 260 267 273 281 291 305 312 313 314 317 316
225 230 231 232 235 238 241 237 226 218 216 216 218 220 223 226 228 230 231 231 231 231 232 234 237 240 241 239 236 235 234 234 234 233 231 231 232 235 237 238 240 240 240 240 240 241 243 244 244 243 243 242 243 244 245 244 243 242 243 246 248 249 250 249 247 242 237 234 231 227 232 243 247 248 256 266 275 283 291 300 306 307 308 311 313
226 231 233 232 235 241 244 240 232 225 222 220 220 220 220 223 226 229 232 233 233 233 233 234 236 239 241 241 240 237 234 233 235 235 234 232 233 234 236 237 239 239 239 238 238 240 242 243 245 245 246 246 246 248 250 249 247 243 241 242 245 248 249 250 250 246 240 235 234 233 236 242 248 253 259 268 278 285 290 297 302 303 303 307 310
229 236 239 235 232 234 237 236 232 228 226 224 223 222 222 223 225 228 231 233 233 234 234 234 236 239 241 242 242 240 236 233 233 234 234 234 234 234 236 238 239 240 240 239 239 239 240 242 245 246 246 247 246 248 250 252 251 247 244 243 244 246 247 249 250 248 243 240 239 239 240 244 250 259 268 276 283 288 289 294 299 300 302 306 307
231 235 239 236 230 226 228 232 230 227 225 225 225 226 225 225 226 228 232 234 235 235 236 237 238 240 241 242 242 242 239 236 234 233 232 233 234 235 236 237 239 241 241 241 241 241 241 242 245 247 248 248 247 247 249 253 254 252 249 246 245 244 245 246 248 247 245 244 244 243 244 247 253 262 272 278 284 287 289 293 297 299 302 306 305
232 229 229 228 224 223 226 231 230 226 223 223 225 227 228 227 227 229 232 235 236 237 238 239 239 240 242 243 243 243 241 238 235 232 231 231 233 235 238 239 240 241 242 243 244 244 244 245 246 248 250 249 248 248 249 253 256 258 257 254 249 246 245 244 244 244 245 246 248 250 251 253 258 264 271 276 280 284 287 291 295 298 301 303 302
231 223 220 218 217 219 223 227 230 226 222 223 226 227 229 229 229 229 231 234 237 238 238 239 239 240 241 243 244 244 243 240 237 234 231 230 232 235 238 241 242 242 243 245 247 249 250 250 250 251 252 251 249 249 250 252 256 258 258 257 255 252 249 245 243 243 246 249 252 255 257 259 262 266 270 274 278 282 286 289 293 296 299 300 302
228 221 217 213 211 214 218 223 229 228 224 225 228 229 230 230 229 230 232 235 237 238 238 240 240 241 242 243 244 245 244 243 241 238 235 233 233 235 238 240 242 243 244 246 249 251 253 254 255 255 254 252 250 250 250 250 251 252 253 255 256 253 250 248 246 246 247 250 253 256 258 261 264 267 270 274 277 281 285 289 293 297 299 301 304
226 223 223 217 211 212 216 222 228 230 228 229 232 232 232 231 230 231 233 236 238 239 239 240 241 241 241 243 244 246 245 245 244 241 239 238 237 238 239 240 241 242 243 246 249 252 254 257 259 259 258 256 253 251 250 248 247 248 248 250 251 250 250 251 250 250 251 252 255 257 260 263 266 269 271 274 277 282 286 290 294 297 299 302 305
229 229 230 226 219 216 218 223 229 232 231 232 235 235 234 232 230 230 232 235 237 239 240 241 242 241 241 241 243 245 246 246 245 243 242 242 242 242 242 242 240 240 242 246 249 252 254 255 257 258 258 259 258 255 252 249 247 247 246 246 247 248 250 251 253 254 256 257 258 261 264 267 269 271 273 275 278 282 286 289 292 296 300 302 303
235 235 236 234 229 225 225 228 232 234 234 234 236 236 235 234 231 230 231 234 237 239 240 241 242 242 241 240 241 243 245 247 247 246 244 245 246 246 245 244 242 241 242 245 247 248 250 251 252 252 255 257 258 257 256 253 251 249 247 246 246 249 251 253 256 258 259 260 262 263 265 267 270 273 276 277 279 282 285 288 291 295 297 297 298
238 240 241 239 236 233 233 233 235 235 236 237 238 238 238 237 233 230 230 233 236 238 239 240 242 243 242 242 242 242 243 245 247 247 247 247 248 248 247 246 245 243 243 244 245 245 246 247 246 246 248 251 254 256 257 257 255 252 249 248 250 252 255 257 259 260 261 263 264 264 266 269 272 274 275 277 280 283 286 289 291 292 293 292 293
237 240 242 243 242 241 239 238 237 238 239 240 239 240 241 242 240 236 234 234 235 238 239 240 241 242 243 243 242 243 243 242 244 246 247 248 249 250 250 249 248 247 245 243 243 242 242 242 242 243 245 249 252 254 255 256 256 255 252 252 253 256 258 260 261 263 264 265 266 267 270 272 272 273 275 279 283 286 289 290 290 289 289 288 288
237 239 241 243 245 247 246 243 241 240 241 240 239 240 241 244 244 242 239 236 235 236 238 240 241 242 243 243 242 243 243 242 242 243 244 247 250 252 252 252 252 251 248 245 244 244 244 244 244 245 247 248 250 251 252 253 254 255 255 254 255 257 258 259 261 262 264 265 266 268 270 270 271 273 276 280 283 285 285 285 284 284 285 285 286
238 239 241 244 246 247 249 247 244 243 242 242 241 240 241 244 245 245 243 239 238 239 240 241 241 241 242 243 243 243 243 243 243 243 244 246 250 254 256 257 257 256 252 249 248 249 249 249 249 248 247 247 248 249 250 251 252 252 254 254 255 256 257 258 258 260 261 264 266 267 268 270 272 274 277 280 281 281 281 280 280 282 284 285 287
239 240 242 244 246 248 249 248 246 244 243 244 244 244 244 246 247 248 248 247 246 246 245 243 242 242 243 243 243 243 244 245 246 247 248 247 247 251 256 259 261 260 258 255 254 253 252 252 250 248 247 245 244 245 246 247 248 249 250 252 253 253 253 253 254 256 259 262 265 266 268 270 272 274 276 277 278 280 282 283 283 285 286 286 287
240 241 242 244 247 248 249 249 248 246 244 245 245 246 246 247 247 249 251 251 252 252 250 246 244 245 244 243 242 243 245 246 247 248 247 245 243 245 250 253 255 255 254 253 252 250 249 247 246 245 244 243 243 243 243 244 245 245 246 246 247 247 247 248 249 252 256 259 261 264 267 269 272 274 275 275 277 280 283 284 285 287 287 286 287
243 243 243 244 245 247 248 249 248 247 246 244 244 245 247 248 247 246 246 247 250 253 253 251 249 246 244 243 242 241 241 242 242 241 241 241 240 239 241 245 247 247 245 245 245 244 244 244 244 243 242 243 243 243 243 243 242 241 241 241 241 243 245 247 249 252 254 255 258 262 265 268 270 272 273 274 275 278 279 281 283 285 286 287 288
246 245 245 245 245 245 247 248 248 248 248 247 247 247 248 248 245 241 240 243 247 249 250 250 249 247 244 242 240 238 237 237 236 236 237 238 236 234 233 236 239 240 240 240 241 241 242 243 243 243 243 245 246 247 247 246 244 242 240 239 240 243 246 249 250 251 252 253 256 259 262 264 268 270 271 271 271 272 275 280 283 285 286 287 288
248 247 248 248 247 246 247 248 249 249 249 251 251 251 251 251 248 245 246 251 255 256 254 251 249 248 245 242 238 236 235 234 233 233 233 232 232 231 231 231 234 236 235 235 237 238 239 241 242 244 247 250 251 252 251 250 248 246 244 243 243 246 248 249 249 249 249 251 254 257 258 259 262 266 267 267 269 275 281 286 288 288 288 288 289
247 247 248 248 248 248 247 248 250 250 249 249 250 251 252 253 252 250 251 255 260 264 264 260 257 254 250 244 239 235 233 232 231 231 230 228 227 229 230 231 233 234 233 233 234 236 238 242 246 250 254 256 257 256 255 253 250 248 247 246 246 246 247 248 247 247 247 250 253 253 254 256 260 262 262 266 276 287 291 291 290 288 287 287 288
246 246 247 247 247 247 247 249 251 252 252 251 250 250 251 252 250 248 249 253 258 261 263 263 261 259 255 249 242 235 232 231 229 229 229 228 226 226 228 230 230 229 229 230 232 236 241 248 253 257 259 259 258 256 253 249 246 243 242 243 243 243 245 246 246 246 248 251 252 252 253 255 257 255 255 264 278 286 287 287 287 286 286 287 288
247 245 245 246 246 245 245 247 250 254 256 256 255 255 255 254 251 249 249 252 255 255 256 260 259 256 255 252 243 235 232 231 228 226 228 228 228 228 229 228 226 225 228 232 236 241 248 253 257 259 259 258 257 256 254 254 253 250 248 247 246 246 247 248 248 247 247 247 249 251 252 253 251 249 253 263 272 276 279 282 283 283 283 285 287
245 244 244 244 245 244 243 243 246 251 255 255 255 257 257 256 254 252 250 251 253 252 252 256 254 249 249 249 240 231 227 225 224 224 226 228 228 229 228 227 226 227 231 236 240 246 252 256 258 258 257 256 258 260 261 262 262 261 259 258 257 256 255 252 247 241 242 245 245 246 249 251 253 256 263 270 274 275 277 280 280 279 280 281 283
243 242 243 244 244 244 243 242 242 246 250 252 253 255 254 252 253 253 249 249 253 253 252 255 252 244 242 241 233 223 217 215 217 221 224 227 228 228 228 228 229 231 234 238 243 248 252 255 256 256 254 254 255 257 258 258 258 260 261 262 263 263 261 255 247 238 238 244 249 252 256 258 260 263 267 270 271 271 272 273 276 277 278 279 280
250 245 243 244 244 243 244 243 243 244 247 249 252 255 254 252 252 252 248 247 249 250 253 255 251 241 234 231 226 220 214 213 216 220 224 227 229 231 232 232 233 234 237 241 246 249 251 251 251 252 253 252 248 247 251 254 256 258 261 264 266 265 260 258 256 250 242 241 248 256 261 263 264 268 271 272 271 271 272 273 274 276 277 277 277
260 254 249 247 246 245 245 245 245 245 246 248 250 252 253 253 253 252 249 247 246 247 251 253 250 240 230 225 223 221 216 215 218 222 225 229 233 235 237 239 241 240 240 243 248 248 247 246 248 250 253 254 251 245 245 249 256 262 264 267 269 268 261 260 262 261 257 256 258 260 262 264 266 270 274 275 274 274 275 275 275 275 276 275 274
263 262 259 255 251 248 248 248 247 246 247 248 249 250 250 251 252 250 247 246 246 247 249 250 248 241 231 223 222 222 220 218 221 223 225 228 233 236 239 243 247 247 243 240 242 242 241 242 245 247 251 255 258 254 249 249 256 262 264 266 268 267 263 260 262 266 269 271 269 265 264 265 266 268 270 271 271 272 273 272 271 270 270 270 270
260 261 262 261 259 255 252 250 249 246 245 246 249 250 249 248 249 249 248 247 246 246 246 246 245 241 234 225 222 223 223 222 223 225 226 228 232 236 239 242 245 245 240 234 233 236 238 242 247 249 250 255 260 263 262 260 260 261 262 263 265 266 264 261 260 263 265 266 265 263 263 263 264 265 266 266 266 267 267 267 267 266 265 265 266
261 261 262 262 263 261 257 253 249 245 243 243 246 248 248 248 248 247 248 248 246 245 246 245 243 240 236 229 224 224 227 228 227 228 231 234 236 239 240 241 241 240 237 234 232 232 234 238 242 245 247 250 254 259 262 263 262 262 262 263 264 265 264 262 262 263 263 263 262 262 263 265 267 268 266 264 263 263 262 263 265 265 264 263 263
265 265 263 263 264 264 263 260 253 246 242 241 242 245 248 249 248 246 244 245 245 245 244 243 241 238 236 233 229 228 230 232 230 229 232 237 238 238 238 238 237 237 238 238 236 234 234 235 238 242 247 251 254 257 259 260 260 260 261 264 266 267 267 266 266 267 267 266 264 264 266 267 268 268 267 266 265 264 264 265 265 263 262 262 263
261 265 266 267 267 267 267 266 257 246 239 238 239 242 246 249 249 247 244 242 243 245 244 241 238 237 236 234 231 230 234 236 234 230 231 235 237 236 235 234 234 236 239 241 241 241 243 243 244 249 254 255 255 256 257 258 260 262 264 261 260 262 266 268 269 270 270 269 268 267 268 268 267 267 266 265 263 262 262 263 262 261 262 264 266
234 249 262 261 258 258 260 260 252 242 236 236 238 241 243 245 248 248 245 241 240 241 240 237 234 233 234 232 230 231 235 239 237 233 233 235 236 235 235 235 236 237 241 242 243 244 247 249 248 249 251 251 251 252 254 256 260 264 260 251 248 255 265 270 271 272 272 270 269 268 267 266 265 263 262 261 259 259 259 260 261 263 264 266 268
215 202 234 235 225 221 228 237 239 235 232 233 237 239 241 243 244 243 242 239 237 235 235 234 231 230 231 231 231 231 235 240 242 240 237 236 235 233 233 234 236 237 239 241 242 244 247 249 250 251 251 252 253 253 255 258 259 256 251 247 249 258 268 272 273 274 272 270 269 268 266 264 262 260 258 258 258 258 258 259 261 262 264 265 266
209 202 199 207 207 204 204 211 218 223 226 232 238 240 240 241 242 241 239 237 235 235 237 237 236 234 232 229 228 229 233 238 241 239 234 233 235 234 232 231 233 235 237 240 243 244 247 248 250 251 252 253 254 255 256 255 252 250 250 254 260 267 270 271 271 270 267 266 266 265 262 260 259 260 260 259 258 258 258 259 260 261 263 265 266
188 198 197 193 202 211 206 203 205 209 210 212 216 218 217 218 222 226 227 224 224 229 235 238 239 239 235 229 225 227 231 237 242 243 242 239 238 236 233 231 229 229 232 238 241 243 245 247 248 248 250 251 253 254 252 247 245 249 255 260 263 265 267 267 267 264 262 262 263 262 260 258 256 256 257 258 258 258 259 259 260 262 264 265 266
141 173 188 188 185 186 191 197 204 206 199 182 171 180 192 195 196 200 207 210 210 212 218 224 230 234 233 228 225 226 231 237 243 245 242 236 231 230 231 231 229 229 233 238 241 242 243 245 245 246 249 251 250 248 245 244 247 252 257 258 259 261 263 263 263 262 261 261 260 259 256 254 253 253 255 257 257 257 258 259 260 261 262 263 264
124 136 163 184 189 188 185 184 192 202 204 193 179 176 178 180 183 190 198 203 205 206 209 214 219 223 225 226 225 226 229 234 238 240 238 234 232 233 235 237 238 237 238 240 241 241 242 244 244 242 243 246 248 249 251 253 256 257 257 257 259 262 263 262 260 259 258 258 257 253 250 248 250 251 253 255 256 256 257 259 260 260 260 262 264
Height
3189 3191 3193 3195 3197 3199 3201 3204 3206 3208 3209 3211 3213 3216 3218 3219 3221 3223 3225 3226 3227 3228 3229 3230 3231 3232 3233 3234 3234 3235 3236 3237 3237 3238 3239 3240 3242 3242 3243 3244 3245 3245 3246 3246 3247 3248 3248 3249 3250 3250 3251 3252 3252 3253 3254 3254 3255 3256 3256 3257 3258 3258 3259 3259 3259 3260 3260 3259 3259 3259 3259 3258 3257 3257 3256 3256 3255 3255 3255 3254 3253 3253 3251 3250 3248
3186 3189 3191 3193 3194 3196 3199 3202 3204 3206 3207 3209 3211 3213 3215 3217 3219 3221 3222 3224 3225 3226 3228 3229 3230 3231 3231 3232 3233 3234 3234 3235 3236 3237 3238 3239 3240 3241 3242 3243 3244 3244 3245 3246 3246 3247 3248 3248 3249 3250 3250 3251 3252 3253 3254 3254 3255 3255 3256 3257 3257 3258 3258 3259 3259 3259 3259 3259 3259 3258 3258 3257 3257 3256 3256 3256 3256 3255 3254 3254 3253 3252 3251 3250 3248
3184 3187 3189 3190 3192 3194 3196 3199 3201 3203 3205 3207 3209 3211 3213 3215 3217 3218 3220 3221 3223 3224 3226 3227 3228 3229 3230 3231 3232 3232 3233 3234 3234 3235 3236 3237 3238 3240 3241 3242 3242 3243 3244 3245 3245 3246 3247 3248 3248 3249 3250 3250 3251 3252 3253 3254 3254 3255 3255 3256 3257 3257 3257 3258 3258 3258 3258 3258 3258 3257 3257 3256 3256 3255 3255 3255 3255 3255 3254 3253 3253 3252 3251 3249 3248
3182 3184 3186 3189 3191 3192 3193 3195 3198 3200 3202 3204 3206 3209 3211 3213 3214 3216 3218 3219 3220 3222 3224 3225 3226 3227 3228 3229 3230 3231 3232 3232 3233 3234 3235 3236 3237 3238 3239 3240 3241 3241 3242 3243 3244 3245 3246 3247 3247 3248 3249 3249 3250 3251 3252 3253 3253 3254 3255 3255 3256 3256 3256 3257 3257 3257 3257 3258 3257 3257 3256 3256 3255 3255 3255 3255 3255 3254 3253 3253 3252 3252 3251 3249 3247
3180 3181 3184 3186 3188 3190 3191 3193 3194 3196 3199 3202 3204 3207 3208 3210 3212 3214 3215 3217 3218 3220 3221 3222 3224 3225 3226 3227 3228 3229 3230 3231 3232 3232 3233 3234 3235 3236 3237 3238 3239 3240 3241 3241 3242 3243 3244 3245 3246 3247 3247 3248 3249 3250 3250 3251 3252 3253 3253 3254 3254 3255 3255 3255 3256 3256 3256 3257 3257 3256 3256 3255 3255 3255 3254 3254 3254 3253 3253 3252 3251 3250 3249 3248 3246
3178 3179 3181 3183 3185 3188 3190 3191 3192 3194 3196 3199 3202 3204 3206 3208 3209 3211 3213 3214 3216 3217 3219 3220 3221 3222 3224 3225 3226 3227 3228 3229 3230 3231 3232 3233 3233 3234 3235 3236 3237 3238 3238 3239 3240 3241 3242 3243 3244 3245 3245 3246 3247 3248 3249 3249 3250 3251 3252 3252 3253 3253 3253 3254 3254 3254 3255 3255 3256 3255 3255 3255 3255 3254 3253 3253 3253 3252 3252 3251 3250 3249 3248 3246 3245
3176 3177 3179 3181 3183 3185 3187 3189 3191 3192 3194 3196 3199 3202 3204 3205 3207 3208 3210 3212 3213 3215 3216 3218 3219 3220 3222 3223 3224 3225 3226 3227 3228 3229 3230 3231 3231 3232 3233 3234 3235 3235 3236 3237 3238 3239 3240 3241 3242 3243 3243 3245 3245 3246 3247 3247 3248 3249 3250 3250 3251 3251 3252 3252 3252 3253 3253 3254 3254 3254 3253 3253 3253 3253 3252 3251 3251 3250 3250 3250 3249 3248 3247 3245 3243
3174 3175 3177 3179 3181 3183 3186 3188 3190 3192 3193 3194 3196 3199 3201 3203 3204 3206 3208 3209 3210 3212 3214 3215 3217 3218 3220 3221 3222 3223 3224 3225 3225 3226 3227 3228 3229 3230 3231 3232 3233 3233 3234 3235 3236 3237 3238 3239 3240 3240 3241 3242 3243 3244 3245 3245 3246 3246 3247 3248 3248 3249 3250 3250 3251 3251 3251 3252 3252 3252 3252 3252 3251 3251 3250 3249 3249 3248 3248 3247 3247 3246 3245 3243 3241
3171 3173 3175 3177 3179 3182 3184 3186 3188 3190 3191 3192 3194 3195 3198 3200 3201 3203 3204 3206 3208 3210 3211 3213 3214 3216 3217 3218 3219 3220 3221 3222 3223 3224 3225 3226 3227 3228 3228 3229 3230 3231 3232 3233 3233 3234 3235 3236 3237 3238 3239 3240 3241 3241 3242 3243 3243 3244 3245 3245 3246 3247 3247 3248 3248 3249 3249 3250 3250 3250 3250 3250 3249 3248 3248 3247 3247 3246 3246 3245 3245 3244 3243 3242 3240
3168 3170 3172 3174 3177 3178 3181 3183 3185 3187 3189 3190 3191 3193 3195 3197 3198 3200 3201 3203 3204 3206 3208 3210 3211 3213 3214 3215 3217 3217 3218 3219 3220 3222 3223 3224 3224 3225 3226 3227 3228 3229 3230 3230 3231 3232 3233 3234 3234 3235 3236 3237 3238 3238 3239 3240 3240 3241 3242 3243 3243 3244 3245 3245 3246 3246 3247 3247 3248 3247 3248 3248 3247 3246 3245 3245 3245 3245 3244 3243 3242 3241 3241 3240 3239
3165 3167 3169 3172 3174 3176 3178 3180 3182 3183 3185 3187 3189 3190 3192 3194 3195 3196 3198 3199 3201 3203 3205 3206 3208 3210 3211 3213 3214 3214 3215 3217 3218 3220 3221 3222 3222 3222 3223 3224 3225 3226 3227 3228 3229 3230 3230 3231 3232 3232 3233 3234 3235 3236 3236 3237 3237 3239 3240 3240 3241 3241 3242 3242 3243 3244 3244 3245 3245 3245 3245 3246 3245 3244 3243 3243 3243 3243 3242 3241 3240 3239 3238 3238 3237
3162 3165 3168 3171 3173 3175 3178 3179 3178 3179 3181 3183 3185 3187 3189 3190 3192 3193 3194 3196 3198 3199 3201 3203 3205 3207 3208 3210 3211 3211 3213 3215 3216 3217 3218 3219 3220 3220 3221 3222 3223 3224 3224 3226 3227 3228 3228 3229 3229 3230 3231 3232 3232 3233 3233 3234 3235 3235 3236 3237 3238 3238 3238 3239 3240 3241 3241 3242 3242 3243 3243 3243 3242 3242 3241 3241 3241 3241 3240 3240 3239 3238 3237 3236 3235
3160 3162 3166 3169 3170 3172 3176 3177 3176 3175 3176 3178 3181 3183 3185 3186 3188 3189 3191 3193 3194 3196 3197 3199 3201 3203 3205 3206 3208 3209 3210 3212 3213 3215 3216 3217 3218 3218 3219 3220 3221 3221 3222 3223 3224 3225 3226 3226 3227 3228 3229 3229 3230 3231 3231 3232 3232 3233 3233 3234 3235 3235 3236 3236 3237 3238 3238 3238 3239 3240 3240 3240 3240 3239 3238 3239 3239 3239 3239 3238 3237 3236 3236 3235 3234
3156 3160 3163 3165 3167 3168 3171 3174 3175 3174 3173 3174 3176 3178 3180 3183 3185 3186 3188 3189 3190 3192 3194 3196 3197 3200 3202 3203 3205 3206 3208 3209 3211 3212 3213 3214 3215 3216 3216 3217 3218 3219 3220 3221 3222 3222 3223 3224 3225 3226 3226 3227 3228 3228 3229 3230 3230 3230 3231 3231 3232 3232 3233 3233 3234 3235 3235 3235 3236 3237 3237 3237 3237 3237 3237 3237 3237 3237 3237 3237 3236 3235 3234 3233 3232
3151 3156 3159 3162 3164 3165 3167 3170 3173 3173 3173 3172 3173 3174 3176 3179 3181 3183 3185 3186 3187 3188 3190 3192 3194 3196 3198 3200 3202 3203 3205 3207 3208 3209 3211 3212 3213 3213 3214 3214 3215 3216 3217 3218 3219 3220 3221 3222 3222 3223 3224 3225 3226 3226 3227 3228 3228 3228 3228 3228 3229 3229 3230 3230 3231 3232 3232 3232 3233 3234 3234 3234 3234 3235 3235 3235 3235 3235 3235 3235 3234 3233 3232 3231 3230
3149 3152 3156 3158 3161 3163 3165 3166 3168 3170 3171 3171 3171 3172 3173 3175 3178 3180 3182 3183 3184 3185 3187 3188 3190 3193 3195 3197 3198 3200 3202 3204 3205 3206 3208 3209 3210 3210 3211 3211 3212 3213 3214 3215 3217 3218 3219 3219 3220 3221 3222 3223 3224 3224 3225 3225 3225 3226 3226 3226 3226 3227 3227 3228 3228 3229 3229 3230 3230 3230 3231 3231 3232 3233 3233 3233 3233 3233 3233 3232 3231 3230 3229 3228 3227
3147 3149 3152 3154 3157 3160 3162 3163 3164 3165 3167 3168 3169 3170 3171 3172 3175 3177 3179 3180 3181 3182 3183 3185 3187 3189 3191 3193 3195 3197 3199 3201 3202 3204 3205 3206 3207 3207 3208 3208 3209 3210 3211 3213 3214 3215 3216 3217 3218 3219 3220 3221 3222 3222 3222 3222 3222 3223 3223 3224 3224 3224 3225 3225 3226 3226 3226 3226 3226 3227 3228 3229 3230 3230 3231 3231 3231 3231 3230 3230 3229 3227 3226 3225 3224
3144 3146 3148 3151 3153 3154 3157 3158 3160 3161 3162 3164 3165 3167 3169 3170 3172 3174 3176 3177 3178 3180 3181 3183 3184 3186 3188 3190 3192 3193 3196 3198 3200 3201 3203 3204 3204 3205 3205 3206 3207 3208 3209 3211 3212 3213 3214 3215 3216 3217 3218 3219 3220 3220 3220 3219 3219 3220 3221 3221 3221 3222 3222 3223 3223 3223 3223 3223 3223 3224 3226 3227 3228 3228 3229 3229 3228 3228 3227 3226 3225 3224 3223 3222 3220
3141 3142 3145 3147 3149 3150 3151 3153 3154 3156 3158 3159 3161 3164 3166 3168 3169 3171 3172 3174 3176 3177 3179 3180 3181 3183 3184 3186 3188 3190 3192 3194 3196 3198 3200 3201 3201 3202 3203 3203 3204 3205 3207 3208 3209 3210 3211 3213 3214 3214 3216 3217 3217 3217 3217 3217 3217 3217 3218 3218 3218 3219 3220 3220 3219 3219 3219 3220 3221 3222 3223 3225 3226 3226 3226 3226 3226 3225 3224 3223 3222 3221 3220 3219 3217
3138 3139 3140 3142 3144 3146 3147 3148 3149 3151 3154 3155 3158 3160 3162 3164 3166 3167 3169 3171 3173 3174 3176 3177 3178 3179 3181 3183 3185 3187 3189 3191 3193 3195 3197 3198 3199 3199 3200 3200 3201 3203 3204 3205 3207 3208 3209 3210 3211 3212 3214 3215 3215 3215 3215 3215 3215 3215 3215 3215 3216 3217 3217 3216 3216 3216 3217 3218 3219 3220 3220 3222 3223 3223 3223 3223 3222 3221 3220 3219 3219 3218 3217 3216 3215
3135 3136 3137 3139 3141 3143 3145 3145 3145 3147 3150 3152 3154 3156 3158 3160 3162 3163 3165 3167 3169 3171 3172 3174 3175 3176 3178 3180 3181 3183 3185 3187 3189 3192 3193 3195 3196 3196 3197 3197 3199 3200 3202 3203 3204 3205 3206 3207 3209 3210 3211 3212 3213 3213 3213 3212 3212 3212 3212 3212 3213 3214 3213 3213 3213 3213 3214 3215 3216 3217 3218 3219 3219 3219 3219 3218 3217 3217 3216 3216 3215 3215 3214 3213 3212
3132 3132 3134 3136 3139 3140 3142 3142 3141 3142 3145 3147 3149 3151 3154 3156 3158 3160 3161 3163 3165 3167 3169 3170 3172 3173 3175 3176 3178 3179 3182 3184 3186 3188 3190 3192 3193 3193 3194 3195 3197 3198 3198 3199 3201 3202 3203 3204 3206 3207 3208 3209 3209 3210 3210 3209 3209 3209 3209 3210 3210 3210 3209 3209 3210 3210 3211 3212 3213 3214 3215 3215 3215 3215 3214 3214 3213 3213 3213 3212 3211 3210 3209 3209 3208
3128 3129 3130 3133 3135 3137 3138 3137 3137 3139 3141 3143 3145 3147 3150 3152 3154 3155 3157 3159 3161 3163 3165 3167 3168 3170 3172 3173 3174 3176 3178 3180 3182 3185 3187 3188 3189 3190 3191 3192 3194 3195 3195 3196 3197 3199 3200 3201 3202 3203 3204 3205 3206 3206 3206 3206 3206 3206 3207 3207 3207 3206 3206 3206 3207 3208 3208 3209 3210 3211 3211 3211 3211 3210 3210 3210 3209 3209 3208 3207 3207 3206 3205 3204 3203
3124 3125 3127 3129 3131 3133 3133 3134 3134 3135 3137 3139 3140 3142 3145 3148 3150 3151 3153 3155 3157 3159 3161 3163 3165 3166 3168 3170 3171 3173 3175 3177 3179 3181 3183 3185 3185 3186 3188 3189 3190 3191 3191 3192 3194 3195 3196 3197 3198 3199 3200 3200 3201 3202 3202 3202 3202 3203 3204 3203 3203 3203 3203 3203 3204 3205 3205 3206 3206 3207 3207 3207 3207 3207 3206 3205 3204 3204 3203 3203 3202 3201 3200 3199 3198
3119 3121 3122 3124 3126 3128 3129 3129 3130 3131 3133 3134 3135 3137 3140 3143 3145 3147 3149 3150 3152 3154 3157 3159 3161 3162 3164 3166 3168 3170 3172 3174 3176 3178 3179 3181 3181 3183 3184 3185 3186 3187 3188 3189 3190 3191 3192 3193 3194 3195 3195 3196 3197 3197 3197 3197 3198 3199 3199 3199 3199 3199 3200 3201 3202 3202 3202 3202 3202 3203 3203 3204 3203 3203 3201 3200 3200 3200 3200 3200 3199 3198 3196 3194 3194
3115 3116 3118 3119 3121 3122 3123 3124 3125 3127 3128 3130 3131 3133 3135 3138 3140 3143 3145 3146 3149 3151 3153 3155 3157 3159 3161 3163 3165 3167 3169 3170 3172 3174 3176 3177 3178 3179 3181 3182 3183 3184 3184 3185 3187 3187 3188 3188 3189 3190 3191 3191 3192 3192 3193 3193 3194 3194 3195 3195 3196 3196 3197 3198 3198 3198 3198 3199 3199 3199 3200 3200 3199 3197 3197 3197 3196 3196 3196 3196 3195 3193 3192 3190 3189
3111 3112 3113 3115 3116 3117 3118 3119 3121 3122 3124 3125 3127 3129 3130 3132 3135 3138 3140 3142 3145 3147 3149 3151 3153 3155 3157 3159 3161 3163 3165 3167 3169 3171 3172 3174 3175 3177 3178 3178 3179 3180 3181 3182 3183 3183 3183 3184 3184 3186 3186 3187 3187 3188 3188 3189 3190 3190 3191 3192 3192 3193 3194 3194 3194 3194 3195 3195 3195 3196 3196 3195 3194 3194 3194 3193 3192 3191 3191 3190 3189 3188 3187 3185 3185
3107 3108 3109 3110 3111 3112 3113 3115 3116 3118 3119 3121 3122 3124 3126 3128 3130 3133 3136 3139 3141 3143 3145 3147 3149 3151 3153 3155 3157 3159 3161 3163 3165 3167 3169 3171 3173 3174 3175 3176 3177 3177 3177 3179 3180 3179 3179 3180 3180 3181 3182 3182 3183 3183 3184 3185 3186 3186 3187 3188 3188 3189 3190 3190 3190 3191 3191 3191 3191 3191 3191 3190 3190 3190 3189 3189 3187 3186 3185 3185 3185 3184 3182 3181 3180
3103 3104 3106 3106 3107 3108 3109 3110 3112 3113 3114 3116 3119 3121 3122 3123 3126 3129 3132 3135 3137 3140 3142 3143 3144 3146 3148 3150 3152 3155 3157 3159 3162 3165 3168 3170 3171 3172 3173 3174 3174 3174 3175 3176 3176 3175 3175 3175 3176 3176 3176 3177 3178 3178 3179 3180 3181 3182 3183 3183 3184 3185 3185 3186 3186 3187 3187 3188 3187 3187 3186 3186 3185 3185 3185 3184 3183 3182 3181 3181 3181 3180 3179 3178 3177
3099 3101 3102 3103 3103 3105 3106 3106 3108 3109 3111 3112 3114 3114 3116 3118 3122 3126 3129 3131 3133 3135 3137 3138 3140 3141 3142 3144 3147 3150 3153 3156 3159 3162 3164 3166 3168 3169 3170 3171 3171 3171 3172 3172 3171 3170 3170 3170 3170 3170 3171 3172 3172 3173 3174 3175 3176 3177 3178 3179 3179 3180 3181 3181 3182 3183 3184 3184 3183 3182 3182 3182 3181 3181 3181 3180 3179 3179 3178 3177 3177 3177 3176 3175 3174
3094 3096 3098 3099 3100 3101 3101 3102 3103 3104 3105 3106 3106 3108 3113 3117 3121 3123 3125 3126 3127 3129 3131 3133 3134 3136 3137 3138 3141 3145 3148 3151 3154 3156 3158 3161 3163 3165 3166 3167 3168 3167 3168 3167 3166 3165 3165 3165 3165 3165 3166 3166 3167 3168 3169 3170 3171 3172 3173 3174 3175 3175 3176 3177 3179 3180 3180 3180 3179 3178 3178 3178 3177 3177 3177 3177 3176 3176 3175 3174 3174 3173 3172 3172 3171
3090 3092 3093 3094 3095 3097 3098 3099 3099 3099 3100 3100 3102 3107 3111 3115 3117 3118 3119 3120 3121 3123 3125 3127 3128 3130 3131 3133 3136 3138 3141 3144 3147 3150 3153 3155 3158 3159 3161 3162 3162 3163 3162 3161 3160 3160 3160 3160 3160 3160 3161 3162 3162 3163 3164 3165 3166 3167 3168 3169 3170 3170 3171 3173 3174 3175 3175 3175 3175 3175 3175 3174 3174 3174 3174 3173 3173 3172 3172 3171 3170 3169 3169 3168 3167
3085 3087 3089 3090 3091 3092 3093 3094 3095 3095 3096 3098 3101 3105 3107 3110 3113 3115 3116 3117 3119 3120 3122 3123 3124 3125 3127 3128 3130 3132 3135 3138 3141 3143 3146 3149 3151 3153 3154 3155 3156 3156 3156 3154 3154 3154 3155 3154 3155 3156 3156 3157 3158 3159 3159 3160 3161 3162 3163 3164 3165 3166 3167 3168 3169 3170 3171 3171 3171 3171 3171 3171 3170 3170 3170 3170 3169 3169 3168 3167 3166 3166 3165 3165 3164
3080 3082 3084 3085 3086 3087 3088 3089 3089 3090 3091 3093 3097 3100 3103 3106 3109 3111 3113 3115 3117 3118 3119 3120 3120 3121 3123 3124 3126 3127 3129 3132 3134 3137 3140 3142 3144 3146 3147 3148 3149 3149 3148 3148 3149 3149 3149 3150 3150 3151 3152 3153 3154 3155 3155 3155 3156 3157 3158 3159 3160 3161 3162 3163 3164 3166 3167 3167 3167 3167 3167 3167 3167 3167 3167 3167 3166 3165 3165 3164 3163 3163 3162 3161 3161
3074 3076 3078 3079 3081 3082 3083 3084 3084 3084 3086 3089 3093 3096 3099 3102 3104 3106 3109 3111 3113 3115 3116 3117 3117 3118 3119 3121 3122 3124 3125 3127 3129 3132 3133 3135 3137 3138 3139 3140 3141 3141 3142 3143 3144 3145 3146 3146 3147 3148 3148 3149 3150 3150 3150 3151 3152 3153 3154 3155 3155 3156 3157 3158 3160 3161 3163 3163 3163 3163 3163 3164 3164 3164 3164 3163 3162 3161 3161 3161 3160 3159 3158 3158 3157
3067 3070 3071 3073 3075 3076 3077 3079 3080 3081 3083 3087 3092 3096 3098 3100 3101 3102 3104 3107 3109 3111 3113 3113 3113 3114 3115 3117 3119 3120 3121 3123 3125 3127 3128 3130 3131 3132 3133 3134 3135 3136 3138 3139 3140 3142 3142 3142 3143 3143 3143 3143 3145 3147 3147 3149 3152 3153 3153 3152 3151 3151 3152 3153 3155 3157 3158 3159 3159 3159 3159 3160 3160 3160 3159 3158 3157 3157 3157 3157 3157 3156 3155 3154 3153
3061 3063 3065 3066 3068 3069 3071 3073 3076 3079 3081 3083 3088 3092 3095 3097 3098 3099 3100 3102 3105 3107 3108 3108 3108 3109 3110 3112 3114 3116 3117 3119 3120 3122 3123 3124 3125 3127 3128 3130 3131 3133 3134 3135 3137 3138 3138 3139 3139 3138 3137 3138 3142 3145 3145 3146 3148 3149 3149 3149 3149 3148 3148 3149 3150 3152 3153 3153 3154 3154 3155 3155 3156 3156 3155 3154 3154 3154 3154 3154 3154 3153 3152 3151 3150
3054 3056 3058 3059 3061 3063 3065 3068 3072 3075 3077 3079 3082 3086 3089 3091 3092 3093 3095 3097 3100 3102 3102 3102 3102 3103 3105 3107 3109 3111 3112 3114 3115 3117 3118 3119 3121 3123 3124 3126 3128 3129 3130 3131 3133 3134 3134 3134 3134 3132 3132 3134 3139 3140 3139 3140 3142 3142 3143 3144 3145 3145 3144 3144 3145 3147 3148 3149 3149 3150 3150 3150 3150 3150 3150 3150 3150 3150 3149 3149 3149 3149 3148 3147 3146
3047 3050 3052 3053 3055 3057 3059 3063 3067 3070 3073 3075 3077 3080 3082 3085 3086 3087 3089 3091 3093 3095 3095 3095 3096 3097 3099 3101 3103 3105 3107 3110 3111 3112 3114 3116 3118 3119 3120 3122 3124 3124 3126 3128 3129 3129 3129 3129 3129 3128 3128 3130 3132 3133 3134 3135 3136 3137 3138 3139 3139 3139 3139 3139 3140 3142 3143 3144 3145 3145 3145 3145 3145 3145 3145 3145 3145 3145 3144 3144 3144 3144 3143 3142 3141
3040 3044 3046 3048 3049 3050 3053 3057 3061 3064 3067 3069 3072 3074 3076 3078 3080 3082 3083 3084 3086 3087 3088 3089 3090 3092 3093 3095 3098 3101 3103 3106 3108 3110 3111 3113 3113 3114 3115 3117 3118 3119 3123 3126 3125 3124 3125 3125 3125 3125 3124 3123 3125 3128 3130 3131 3131 3132 3133 3134 3134 3134 3134 3134 3135 3136 3138 3140 3142 3142 3142 3141 3141 3141 3141 3141 3140 3139 3139 3139 3139 3139 3138 3137 3137
3035 3038 3040 3042 3044 3045 3047 3050 3055 3059 3061 3063 3065 3068 3070 3071 3073 3074 3076 3077 3079 3080 3082 3083 3085 3086 3088 3090 3093 3096 3098 3101 3104 3106 3106 3105 3105 3107 3109 3111 3112 3115 3120 3122 3120 3120 3121 3122 3122 3122 3121 3119 3120 3122 3125 3126 3127 3128 3128 3129 3130 3130 3130 3130 3131 3132 3133 3135 3136 3137 3138 3138 3138 3138 3137 3137 3136 3135 3134 3134 3134 3134 3133 3133 3132
3030 3032 3034 3037 3039 3040 3041 3044 3048 3053 3056 3057 3058 3060 3062 3063 3065 3067 3068 3070 3073 3075 3076 3078 3080 3082 3083 3085 3087 3090 3093 3097 3099 3099 3098 3098 3099 3101 3103 3105 3107 3110 3114 3115 3116 3118 3119 3120 3119 3119 3119 3118 3117 3117 3118 3120 3121 3122 3123 3124 3125 3125 3126 3127 3127 3128 3129 3130 3131 3132 3133 3134 3134 3134 3133 3132 3132 3131 3130 3130 3129 3129 3128 3128 3128
3026 3027 3028 3030 3033 3035 3036 3039 3042 3046 3049 3051 3052 3053 3054 3055 3057 3060 3063 3065 3068 3070 3072 3074 3076 3077 3079 3080 3081 3083 3087 3089 3091 3093 3094 3096 3097 3098 3100 3101 3103 3105 3108 3110 3112 3114 3116 3116 3116 3116 3115 3115 3114 3114 3114 3115 3116 3117 3118 3119 3119 3120 3121 3122 3123 3124 3125 3126 3126 3127 3128 3129 3129 3129 3128 3128 3127 3126 3125 3125 3124 3124 3123 3123 3123
3022 3022 3023 3025 3027 3029 3031 3034 3036 3039 3042 3044 3046 3046 3047 3048 3050 3053 3057 3060 3063 3065 3068 3069 3071 3072 3073 3074 3075 3076 3079 3081 3085 3088 3091 3093 3094 3095 3096 3097 3098 3100 3102 3104 3106 3108 3110 3111 3111 3110 3111 3111 3111 3111 3111 3111 3112 3112 3113 3114 3115 3116 3117 3117 3118 3119 3120 3120 3121 3122 3123 3124 3124 3124 3123 3123 3122 3121 3120 3120 3119 3118 3118 3118 3118
3020 3020 3020 3021 3022 3024 3026 3028 3029 3031 3034 3036 3039 3041 3042 3043 3045 3048 3052 3055 3058 3061 3063 3064 3065 3066 3066 3067 3068 3070 3072 3074 3078 3083 3087 3089 3090 3091 3092 3093 3094 3096 3098 3099 3101 3102 3104 3104 3105 3105 3106 3106 3106 3106 3106 3107 3108 3109 3110 3111 3111 3111 3112 3112 3113 3114 3114 3115 3115 3116 3117 3118 3119 3119 3118 3118 3117 3116 3116 3115 3114 3114 3114 3114 3114
3019 3019 3019 3019 3019 3020 3021 3022 3023 3025 3027 3029 3032 3034 3037 3038 3040 3042 3045 3049 3052 3054 3055 3055 3056 3057 3058 3060 3062 3064 3065 3066 3070 3076 3081 3083 3085 3087 3089 3090 3091 3092 3094 3095 3096 3098 3099 3099 3099 3100 3100 3100 3100 3101 3101 3102 3104 3105 3106 3107 3106 3106 3106 3107 3108 3109 3109 3110 3111 3111 3112 3112 3113 3112 3112 3112 3112 3111 3111 3111 3111 3110 3110 3110 3110
3018 3018 3018 3018 3017 3017 3017 3018 3019 3021 3022 3024 3025 3027 3030 3033 3034 3035 3038 3042 3045 3047 3046 3046 3046 3048 3051 3055 3058 3060 3061 3062 3065 3070 3076 3080 3082 3083 3084 3085 3086 3088 3089 3091 3092 3093 3094 3094 3094 3094 3094 3095 3095 3096 3097 3099 3100 3101 3102 3102 3101 3101 3102 3103 3104 3105 3105 3105 3106 3106 3106 3106 3106 3107 3107 3107 3107 3106 3106 3106 3105 3105 3105 3105 3105
3016 3016 3016 3016 3016 3016 3016 3016 3017 3018 3019 3020 3020 3022 3026 3028 3030 3031 3033 3036 3040 3043 3043 3043 3044 3046 3049 3052 3054 3056 3057 3058 3061 3066 3072 3076 3076 3076 3077 3078 3080 3082 3085 3086 3087 3088 3089 3089 3089 3089 3089 3090 3091 3092 3093 3094 3096 3097 3097 3097 3097 3097 3098 3099 3099 3100 3100 3100 3101 3101 3101 3101 3101 3101 3101 3101 3101 3101 3100 3100 3100 3099 3099 3099 3100
3014 3014 3014 3015 3016 3015 3015 3016 3016 3017 3018 3017 3017 3019 3020 3022 3024 3026 3029 3031 3033 3037 3040 3042 3044 3047 3049 3051 3052 3053 3055 3057 3060 3064 3069 3072 3072 3072 3073 3075 3076 3077 3079 3082 3083 3084 3084 3084 3084 3085 3085 3086 3087 3088 3089 3090 3091 3092 3093 3093 3094 3094 3094 3095 3095 3095 3095 3095 3096 3096 3096 3096 3097 3096 3096 3095 3095 3095 3095 3094 3094 3094 3094 3094 3094
3013 3013 3013 3014 3015 3015 3016 3016 3016 3017 3017 3017 3017 3018 3018 3018 3019 3022 3026 3029 3030 3032 3036 3039 3043 3046 3049 3050 3051 3052 3053 3056 3060 3063 3066 3068 3069 3070 3071 3072 3072 3072 3074 3077 3078 3079 3080 3080 3081 3081 3081 3082 3082 3083 3085 3086 3087 3087 3089 3090 3091 3091 3091 3091 3091 3090 3090 3090 3090 3090 3091 3091 3092 3091 3091 3091 3091 3090 3090 3089 3088 3088 3088 3088 3087
3012 3012 3013 3013 3014 3015 3016 3016 3016 3016 3017 3018 3018 3019 3020 3020 3020 3021 3024 3027 3029 3030 3032 3036 3040 3044 3046 3048 3049 3050 3051 3055 3059 3062 3063 3063 3065 3067 3068 3068 3069 3070 3072 3073 3074 3075 3076 3076 3076 3076 3076 3077 3078 3079 3081 3082 3083 3084 3085 3087 3087 3087 3087 3087 3087 3086 3085 3085 3085 3085 3085 3086 3087 3087 3086 3086 3085 3084 3084 3083 3083 3083 3083 3082 3082